Location: ?????
(31.8092°N, 35.2590°E)
Time: 04:20:25
(UTC+00:00)

Lacrosse 5 - Pass Details

Date: 26 October 2021
Orbit: 714 x 724 km, 57.0° (Epoch: 28 August)

Event Time Altitude Azimuth Distance (km) Brightness Sun altitude
Rises 15:34:12 0° 170° (S) 3,118 5.2 -9.0°
Reaches altitude 10° 15:37:50 10° 144° (SE) 2,204 4.1 -9.8°
Maximum altitude 15:40:10 13° 116° (ESE) 1,990 3.7 -10.3°
Enters shadow 15:41:28 12° 100° (E) 2,059 3.6 -10.5°
